When you browse on this site, cookies collect data to enhance your experience and personalize the content and advertising you see.
Visit our Privacy Policy to learn more. By continuing to use the site, you agree to this use of cookies and data.

Hourly Weather Ayia Napa

Today, 9 July, Thursday

Time Temperature Precipitation Wind Pressure Humidity
00:00 +25°C° 0 mm 3 mps 753 mmHg 83%
01:00 +25°C° 0 mm 3 mps 753 mmHg 85%
02:00 +24°C° 0 mm 2 mps 753 mmHg 88%
03:00 +24°C° 0 mm 2 mps 753 mmHg 88%
04:00 +24°C° 0 mm 2 mps 753 mmHg 89%
05:00 +24°C° 0 mm 2 mps 752 mmHg 89%
06:00 +26°C° 0 mm 1 mps 753 mmHg 79%
07:00 +28°C° 0 mm 1 mps 753 mmHg 69%
08:00 +30°C° 0 mm 1 mps 753 mmHg 59%
09:00 +31°C° 0 mm 2 mps 753 mmHg 53%
10:00 +34°C° 0 mm 3 mps 753 mmHg 46%
11:00 +35°C° 0 mm 4 mps 753 mmHg 40%
12:00 +35°C° 0 mm 5 mps 753 mmHg 41%
13:00 +35°C° 0 mm 5 mps 753 mmHg 42%
14:00 +35°C° 0 mm 6 mps 752 mmHg 43%
15:00 +35°C° 0 mm 6 mps 752 mmHg 45%
16:00 +34°C° 0 mm 6 mps 752 mmHg 48%
17:00 +33°C° 0 mm 6 mps 752 mmHg 51%
18:00 +32°C° 0 mm 6 mps 752 mmHg 58%
19:00 +29°C° 0 mm 5 mps 752 mmHg 66%
20:00 +27°C° 0 mm 5 mps 752 mmHg 73%
21:00 +26°C° 0 mm 4 mps 752 mmHg 75%
22:00 +26°C° 0 mm 4 mps 752 mmHg 78%
23:00 +25°C° 0 mm 3 mps 752 mmHg 80%

Tomorrow, 10 July, Friday

Time Temperature Precipitation Wind Pressure Humidity
00:00 +25°C° 0 mm 2 mps 752 mmHg 82%
01:00 +24°C° 0 mm 2 mps 751 mmHg 83%
02:00 +24°C° 0 mm 1 mps 751 mmHg 84%
03:00 +24°C° 0 mm 1 mps 751 mmHg 85%
04:00 +24°C° 0 mm 1 mps 751 mmHg 85%
05:00 +24°C° 0 mm 1 mps 751 mmHg 86%
06:00 +26°C° 0 mm 2 mps 751 mmHg 76%
07:00 +28°C° 0 mm 2 mps 752 mmHg 65%
08:00 +31°C° 0 mm 2 mps 752 mmHg 54%
09:00 +33°C° 0 mm 3 mps 752 mmHg 50%
10:00 +35°C° 0 mm 4 mps 752 mmHg 46%
11:00 +36°C° 0 mm 5 mps 752 mmHg 41%
12:00 +36°C° 0 mm 5 mps 752 mmHg 42%
13:00 +36°C° 0 mm 5 mps 752 mmHg 43%
14:00 +36°C° 0 mm 6 mps 752 mmHg 44%
15:00 +36°C° 0 mm 6 mps 752 mmHg 45%
16:00 +35°C° 0 mm 6 mps 752 mmHg 46%
17:00 +35°C° 0 mm 6 mps 752 mmHg 47%
18:00 +33°C° 0 mm 6 mps 752 mmHg 57%
19:00 +30°C° 0 mm 5 mps 752 mmHg 68%
20:00 +28°C° 0 mm 5 mps 752 mmHg 78%
21:00 +27°C° 0 mm 4 mps 752 mmHg 79%
22:00 +27°C° 0 mm 3 mps 752 mmHg 80%
23:00 +27°C° 0 mm 3 mps 752 mmHg 82%

Day after tomorrow, 11 July, Saturday

Time Temperature Precipitation Wind Pressure Humidity
00:00 +26°C° 0 mm 2 mps 752 mmHg 83%
01:00 +25°C° 0 mm 2 mps 752 mmHg 85%
02:00 +25°C° 0 mm 1 mps 751 mmHg 86%
03:00 +25°C° 0 mm 1 mps 752 mmHg 87%
04:00 +25°C° 0 mm 1 mps 752 mmHg 88%
05:00 +24°C° 0 mm 1 mps 752 mmHg 89%
06:00 +27°C° 0 mm 1 mps 752 mmHg 77%
07:00 +29°C° 0 mm 1 mps 752 mmHg 65%
08:00 +32°C° 0 mm 2 mps 752 mmHg 53%
09:00 +34°C° 0 mm 3 mps 752 mmHg 49%
10:00 +36°C° 0 mm 4 mps 753 mmHg 45%
11:00 +37°C° 0 mm 5 mps 753 mmHg 41%
12:00 +37°C° 0 mm 5 mps 753 mmHg 40%
13:00 +38°C° 0 mm 6 mps 752 mmHg 40%
14:00 +38°C° 0 mm 6 mps 752 mmHg 39%
15:00 +38°C° 0 mm 6 mps 752 mmHg 41%
16:00 +36°C° 0 mm 5 mps 752 mmHg 44%
17:00 +36°C° 0 mm 5 mps 751 mmHg 46%
18:00 +34°C° 0 mm 4 mps 751 mmHg 54%
19:00 +30°C° 0 mm 4 mps 752 mmHg 62%
20:00 +28°C° 0 mm 3 mps 752 mmHg 70%
21:00 +28°C° 0 mm 3 mps 752 mmHg 73%
22:00 +27°C° 0 mm 2 mps 752 mmHg 76%
23:00 +26°C° 0 mm 2 mps 752 mmHg 79%

12 July, Sunday

Time Temperature Precipitation Wind Pressure Humidity
00:00 +26°C° 0 mm 2 mps 751 mmHg 77%
01:00 +26°C° 0 mm 1 mps 751 mmHg 74%
02:00 +25°C° 0 mm 1 mps 751 mmHg 72%
03:00 +25°C° 0 mm 1 mps 751 mmHg 75%
04:00 +25°C° 0 mm 1 mps 751 mmHg 79%
05:00 +24°C° 0 mm 1 mps 751 mmHg 82%
06:00 +27°C° 0 mm 1 mps 751 mmHg 71%
07:00 +30°C° 0 mm 2 mps 751 mmHg 59%
08:00 +34°C° 0 mm 2 mps 751 mmHg 47%
09:00 +35°C° 0 mm 3 mps 751 mmHg 43%
10:00 +37°C° 0 mm 4 mps 751 mmHg 38%
11:00 +39°C° 0 mm 5 mps 752 mmHg 34%
12:00 +39°C° 0 mm 5 mps 752 mmHg 34%
13:00 +40°C° 0 mm 6 mps 751 mmHg 34%
14:00 +40°C° 0 mm 6 mps 751 mmHg 34%
15:00 +39°C° 0 mm 6 mps 751 mmHg 39%
16:00 +38°C° 0 mm 7 mps 751 mmHg 45%
17:00 +36°C° 0 mm 7 mps 750 mmHg 50%
18:00 +34°C° 0 mm 6 mps 750 mmHg 58%
19:00 +30°C° 0 mm 5 mps 750 mmHg 67%
20:00 +28°C° 0 mm 4 mps 751 mmHg 76%
21:00 +28°C° 0 mm 3 mps 750 mmHg 77%
22:00 +27°C° 0 mm 3 mps 750 mmHg 77%
23:00 +27°C° 0 mm 2 mps 750 mmHg 78%

13 July, Monday

Time Temperature Precipitation Wind Pressure Humidity
00:00 +26°C° 0 mm 2 mps 750 mmHg 79%
01:00 +25°C° 0 mm 2 mps 750 mmHg 80%
02:00 +25°C° 0 mm 1 mps 749 mmHg 81%
03:00 +25°C° 0 mm 1 mps 749 mmHg 84%
04:00 +25°C° 0 mm 1 mps 749 mmHg 86%
05:00 +24°C° 0 mm 1 mps 749 mmHg 89%
06:00 +27°C° 0 mm 1 mps 749 mmHg 79%
07:00 +29°C° 0 mm 1 mps 749 mmHg 68%
08:00 +32°C° 0 mm 1 mps 750 mmHg 57%
09:00 +35°C° 0 mm 2 mps 750 mmHg 51%
10:00 +36°C° 0 mm 3 mps 750 mmHg 44%
11:00 +38°C° 0 mm 4 mps 750 mmHg 37%
12:00 +40°C° 0 mm 4 mps 750 mmHg 36%
13:00 +40°C° 0 mm 4 mps 749 mmHg 36%
14:00 +40°C° 0 mm 4 mps 749 mmHg 36%
15:00 +38°C° 0 mm 4 mps 749 mmHg 39%
16:00 +37°C° 0 mm 4 mps 749 mmHg 42%
17:00 +36°C° 0 mm 4 mps 748 mmHg 46%
18:00 +33°C° 0 mm 3 mps 749 mmHg 55%
19:00 +30°C° 0 mm 3 mps 749 mmHg 65%
20:00 +28°C° 0 mm 2 mps 749 mmHg 75%
21:00 +28°C° 0 mm 2 mps 749 mmHg 73%
22:00 +28°C° 0 mm 2 mps 749 mmHg 72%
23:00 +27°C° 0 mm 1 mps 749 mmHg 71%

14 July, Tuesday

Time Temperature Precipitation Wind Pressure Humidity
00:00 +26°C° 0 mm 1 mps 749 mmHg 74%
01:00 +26°C° 0 mm 1 mps 749 mmHg 77%
02:00 +25°C° 0 mm 1 mps 749 mmHg 81%
03:00 +25°C° 0 mm 1 mps 749 mmHg 83%
04:00 +25°C° 0 mm 1 mps 749 mmHg 84%
05:00 +25°C° 0 mm 1 mps 750 mmHg 86%
06:00 +27°C° 0 mm 1 mps 750 mmHg 76%
07:00 +29°C° 0 mm 1 mps 750 mmHg 66%
08:00 +32°C° 0 mm 1 mps 750 mmHg 55%
09:00 +35°C° 0 mm 2 mps 751 mmHg 49%
10:00 +37°C° 0 mm 2 mps 751 mmHg 43%
11:00 +39°C° 0 mm 3 mps 751 mmHg 37%
12:00 +39°C° 0 mm 3 mps 751 mmHg 37%
13:00 +39°C° 0 mm 3 mps 751 mmHg 38%
14:00 +39°C° 0 mm 3 mps 751 mmHg 38%
15:00 +38°C° 0 mm 3 mps 751 mmHg 42%
16:00 +37°C° 0 mm 3 mps 750 mmHg 46%
17:00 +36°C° 0 mm 3 mps 750 mmHg 50%
18:00 +34°C° 0 mm 3 mps 751 mmHg 54%
19:00 +31°C° 0 mm 3 mps 751 mmHg 59%
20:00 +30°C° 0 mm 2 mps 751 mmHg 63%
21:00 +29°C° 0 mm 2 mps 751 mmHg 61%
22:00 +29°C° 0 mm 2 mps 751 mmHg 60%
23:00 +28°C° 0 mm 2 mps 751 mmHg 59%
Show more